SKX5592 SPJC-KMIA

Flight info

Callsign SKX5592
Flight time N/A
Altitude 36000
Route TELE2F ISREN UL780 TBG UL465 ARNAL/N0447F380 UL465 GCM UG448 IKBIX/N0446F370 DCT SNDBR SNDBR3
Aircraft A20N/M-SDE2E3FGHIRWXY/LB1

Departure

Time 2026-04-29 14:23
Airport Jorge Chávez International Airport (SPJC)

Arrival

Time N/A
Airport Miami International Airport (KMIA)
Time Latitude Longitude Altitude Speed Heading
2026-04-29 14:07 -12.03087 -77.11868 115 ft 0 kts 64°
2026-04-29 14:08 -12.03093 -77.11880 115 ft 2 kts 64°
2026-04-29 14:09 -12.03099 -77.11894 115 ft 2 kts 64°
2026-04-29 14:09 -12.03104 -77.11904 115 ft 0 kts 64°
2026-04-29 14:09 -12.03112 -77.11913 115 ft 2 kts 15°
2026-04-29 14:09 -12.03122 -77.11914 115 ft 0 kts 338°
2026-04-29 14:10 -12.03129 -77.11910 115 ft 0 kts 334°
2026-04-29 14:10 -12.03130 -77.11910 115 ft 0 kts 334°
2026-04-29 14:10 -12.03129 -77.11910 115 ft 0 kts 334°
2026-04-29 14:13 -12.03120 -77.11915 115 ft 2 kts 336°
2026-04-29 14:13 -12.03090 -77.11928 115 ft 6 kts 335°
2026-04-29 14:13 -12.03039 -77.11953 115 ft 9 kts 334°
2026-04-29 14:14 -12.02967 -77.11988 115 ft 12 kts 334°
2026-04-29 14:14 -12.02877 -77.12032 115 ft 15 kts 334°
2026-04-29 14:14 -12.02773 -77.12082 115 ft 17 kts 334°
2026-04-29 14:14 -12.02664 -77.12138 115 ft 18 kts 334°
2026-04-29 14:15 -12.02549 -77.12194 115 ft 18 kts 333°
2026-04-29 14:15 -12.02429 -77.12252 115 ft 19 kts 334°
2026-04-29 14:15 -12.02305 -77.12313 115 ft 19 kts 334°
2026-04-29 14:15 -12.02180 -77.12372 115 ft 18 kts 338°
2026-04-29 14:16 -12.02107 -77.12390 115 ft 10 kts 31°
2026-04-29 14:16 -12.02065 -77.12318 115 ft 12 kts 65°
2026-04-29 14:16 -12.02024 -77.12231 115 ft 14 kts 63°
2026-04-29 14:16 -12.01979 -77.12135 115 ft 15 kts 64°
2026-04-29 14:17 -12.01932 -77.12035 115 ft 15 kts 63°
2026-04-29 14:17 -12.01884 -77.11934 115 ft 15 kts 64°
2026-04-29 14:17 -12.01839 -77.11838 115 ft 10 kts 64°
2026-04-29 14:17 -12.01787 -77.11804 115 ft 9 kts 349°
2026-04-29 14:18 -12.01720 -77.11836 115 ft 11 kts 334°
2026-04-29 14:18 -12.01643 -77.11874 115 ft 12 kts 334°
2026-04-29 14:18 -12.01564 -77.11914 115 ft 13 kts 334°
2026-04-29 14:18 -12.01480 -77.11955 115 ft 13 kts 334°
2026-04-29 14:19 -12.01389 -77.12000 115 ft 14 kts 335°
2026-04-29 14:19 -12.01301 -77.12049 115 ft 14 kts 317°
2026-04-29 14:19 -12.01238 -77.12128 115 ft 14 kts 309°
2026-04-29 14:19 -12.01158 -77.12187 115 ft 14 kts 333°
2026-04-29 14:20 -12.01070 -77.12231 115 ft 14 kts 334°
2026-04-29 14:20 -12.00983 -77.12275 115 ft 12 kts 334°
2026-04-29 14:20 -12.00929 -77.12302 115 ft 5 kts 333°
2026-04-29 14:20 -12.00892 -77.12315 115 ft 5 kts 350°
2026-04-29 14:21 -12.00855 -77.12299 115 ft 6 kts 54°
2026-04-29 14:21 -12.00832 -77.12255 115 ft 7 kts 63°
2026-04-29 14:21 -12.00808 -77.12207 115 ft 7 kts 64°
2026-04-29 14:21 -12.00784 -77.12154 115 ft 8 kts 65°
2026-04-29 14:22 -12.00788 -77.12123 115 ft 1 kts 153°
2026-04-29 14:22 -12.00876 -77.12080 116 ft 44 kts 154°
2026-04-29 14:22 -12.01385 -77.11829 116 ft 114 kts 155°
2026-04-29 14:22 -12.02259 -77.11398 164 ft 160 kts 156°
2026-04-29 14:23 -12.03239 -77.10913 774 ft 153 kts 155°
2026-04-29 14:23 -12.04206 -77.10432 1195 ft 158 kts 156°
2026-04-29 14:23 -12.05218 -77.09934 1550 ft 169 kts 156°
2026-04-29 14:23 -12.06338 -77.09384 1825 ft 189 kts 155°
2026-04-29 14:24 -12.07572 -77.08776 2254 ft 202 kts 156°
2026-04-29 14:24 -12.08944 -77.08317 2635 ft 217 kts 180°
2026-04-29 14:24 -12.10415 -77.08813 2921 ft 239 kts 220°
2026-04-29 14:24 -12.11338 -77.10304 3357 ft 260 kts 257°
2026-04-29 14:25 -12.11315 -77.12170 3979 ft 272 kts 286°
2026-04-29 14:25 -12.10389 -77.13863 4787 ft 274 kts 309°
2026-04-29 14:25 -12.09152 -77.15348 5653 ft 275 kts 311°
2026-04-29 14:25 -12.07878 -77.16836 6438 ft 278 kts 311°
2026-04-29 14:26 -12.06589 -77.18350 7230 ft 281 kts 311°
2026-04-29 14:26 -12.05321 -77.19851 8019 ft 283 kts 311°
2026-04-29 14:26 -12.04032 -77.21386 8810 ft 284 kts 311°
2026-04-29 14:26 -12.02739 -77.22930 9576 ft 286 kts 311°
2026-04-29 14:27 -12.01454 -77.24468 10277 ft 290 kts 311°
2026-04-29 14:27 -12.00112 -77.26077 10700 ft 304 kts 311°
2026-04-29 14:27 -11.98712 -77.27754 11007 ft 321 kts 311°
2026-04-29 14:28 -11.95746 -77.31310 12154 ft 334 kts 310°
2026-04-29 14:28 -11.94237 -77.33122 12820 ft 337 kts 310°
2026-04-29 14:28 -11.92719 -77.34945 13450 ft 341 kts 311°
2026-04-29 14:28 -11.91168 -77.36805 14076 ft 345 kts 311°
2026-04-29 14:29 -11.89607 -77.38676 14686 ft 349 kts 311°
2026-04-29 14:29 -11.88030 -77.40566 15284 ft 352 kts 311°
2026-04-29 14:29 -11.86423 -77.42492 15874 ft 356 kts 311°
2026-04-29 14:29 -11.84807 -77.44428 16450 ft 360 kts 311°
2026-04-29 14:30 -11.83194 -77.46360 17007 ft 363 kts 311°
2026-04-29 14:30 -11.81545 -77.48334 17557 ft 367 kts 311°
2026-04-29 14:30 -11.79893 -77.50309 18093 ft 371 kts 312°
2026-04-29 14:30 -11.78095 -77.52187 18617 ft 373 kts 319°
2026-04-29 14:31 -11.76042 -77.53839 19155 ft 375 kts 327°
2026-04-29 14:31 -11.73848 -77.55257 19673 ft 378 kts 329°
2026-04-29 14:31 -11.72356 -77.56170 20007 ft 380 kts 330°
2026-04-29 14:31 -11.69321 -77.58011 20665 ft 384 kts 330°
2026-04-29 14:32 -11.67011 -77.59415 21144 ft 387 kts 329°
2026-04-29 14:32 -11.64720 -77.60812 21621 ft 390 kts 329°
2026-04-29 14:32 -11.62390 -77.62236 22089 ft 393 kts 329°
2026-04-29 14:32 -11.60031 -77.63680 22540 ft 396 kts 329°
2026-04-29 14:33 -11.57683 -77.65118 22978 ft 398 kts 329°
2026-04-29 14:33 -11.55303 -77.66577 23412 ft 401 kts 329°
2026-04-29 14:33 -11.52908 -77.68045 23886 ft 402 kts 329°
2026-04-29 14:33 -11.50515 -77.69511 24332 ft 404 kts 329°
2026-04-29 14:34 -11.48111 -77.70983 24773 ft 406 kts 329°
2026-04-29 14:34 -11.45706 -77.72456 25221 ft 406 kts 329°
2026-04-29 14:34 -11.43287 -77.73937 25658 ft 407 kts 328°
2026-04-29 14:34 -11.40846 -77.75431 26077 ft 408 kts 328°
2026-04-29 14:35 -11.38437 -77.76906 26500 ft 409 kts 328°
2026-04-29 14:35 -11.35998 -77.78399 26929 ft 409 kts 328°
2026-04-29 14:35 -11.33563 -77.79890 27324 ft 409 kts 328°
2026-04-29 14:35 -11.31134 -77.81377 27689 ft 410 kts 328°
2026-04-29 14:36 -11.28693 -77.82870 28047 ft 411 kts 328°
2026-04-29 14:36 -11.26245 -77.84369 28399 ft 412 kts 328°
2026-04-29 14:36 -11.23798 -77.85866 28742 ft 413 kts 327°
2026-04-29 14:36 -11.21323 -77.87380 29077 ft 414 kts 327°
2026-04-29 14:37 -11.18859 -77.88886 29404 ft 415 kts 327°
2026-04-29 14:37 -11.16418 -77.90379 29721 ft 416 kts 327°
2026-04-29 14:37 -11.13940 -77.91896 30026 ft 417 kts 327°
2026-04-29 14:37 -11.11469 -77.93407 30317 ft 418 kts 327°
2026-04-29 14:38 -11.08965 -77.94938 30651 ft 417 kts 327°
2026-04-29 14:38 -11.06499 -77.96423 31027 ft 416 kts 329°
2026-04-29 14:38 -11.03964 -77.97806 31401 ft 414 kts 331°
2026-04-29 14:38 -11.01424 -77.99142 31765 ft 413 kts 331°
2026-04-29 14:39 -10.98871 -78.00481 32105 ft 411 kts 331°
2026-04-29 14:39 -10.96318 -78.01818 32357 ft 412 kts 331°
2026-04-29 14:39 -10.93794 -78.03142 32595 ft 413 kts 331°
2026-04-29 14:39 -10.91230 -78.04487 32870 ft 412 kts 331°
2026-04-29 14:40 -10.88702 -78.05812 33152 ft 412 kts 331°
2026-04-29 14:40 -10.86175 -78.07137 33448 ft 410 kts 331°
2026-04-29 14:40 -10.83632 -78.08471 33726 ft 409 kts 331°
2026-04-29 14:40 -10.81113 -78.09792 33975 ft 409 kts 331°
2026-04-29 14:41 -10.78594 -78.11112 34214 ft 408 kts 331°
2026-04-29 14:41 -10.76074 -78.12434 34445 ft 408 kts 331°
2026-04-29 14:41 -10.73561 -78.13751 34668 ft 407 kts 331°
2026-04-29 14:41 -10.71035 -78.15074 34871 ft 407 kts 332°
2026-04-29 14:42 -10.68519 -78.16393 35028 ft 408 kts 332°
2026-04-29 14:42 -10.66012 -78.17706 35173 ft 409 kts 332°
2026-04-29 14:42 -10.63504 -78.19020 35314 ft 410 kts 332°
2026-04-29 14:42 -10.60958 -78.20352 35463 ft 411 kts 332°
2026-04-29 14:43 -10.58433 -78.21674 35619 ft 411 kts 332°
2026-04-29 14:43 -10.55894 -78.23003 35752 ft 412 kts 332°
2026-04-29 14:43 -10.53337 -78.24342 35881 ft 413 kts 332°
2026-04-29 14:43 -10.50803 -78.25667 36010 ft 413 kts 332°
2026-04-29 14:44 -10.48270 -78.26992 36107 ft 414 kts 332°
2026-04-29 14:44 -10.43143 -78.29674 36111 ft 414 kts 332°
2026-04-29 14:45 -10.38040 -78.32341 36113 ft 414 kts 332°
2026-04-29 14:45 -10.32920 -78.35017 36113 ft 414 kts 332°
2026-04-29 14:46 -10.27828 -78.37676 36113 ft 414 kts 332°
2026-04-29 14:46 -10.22721 -78.40344 36113 ft 414 kts 332°
2026-04-29 14:47 -10.17603 -78.43014 36111 ft 414 kts 332°
2026-04-29 14:47 -10.12505 -78.45676 36106 ft 414 kts 332°
2026-04-29 14:48 -10.07409 -78.48334 36098 ft 414 kts 332°
2026-04-29 14:48 -10.02284 -78.51007 36092 ft 415 kts 332°
2026-04-29 14:49 -9.97166 -78.53676 36089 ft 415 kts 332°
2026-04-29 14:49 -9.92053 -78.56341 36087 ft 415 kts 332°
2026-04-29 14:50 -9.86908 -78.59021 36086 ft 415 kts 332°
2026-04-29 14:50 -9.81780 -78.61692 36086 ft 416 kts 332°
2026-04-29 14:51 -9.76650 -78.64363 36086 ft 416 kts 332°
2026-04-29 14:51 -9.71445 -78.66872 36082 ft 417 kts 337°
2026-04-29 14:52 -9.65998 -78.68811 36061 ft 418 kts 343°
2026-04-29 14:52 -9.60386 -78.70347 36025 ft 419 kts 344°
2026-04-29 14:53 -9.54763 -78.71862 35988 ft 420 kts 344°
2026-04-29 14:53 -9.49141 -78.73379 35966 ft 420 kts 344°
2026-04-29 14:54 -9.43483 -78.74907 35956 ft 421 kts 344°
2026-04-29 14:54 -9.37871 -78.76424 35951 ft 421 kts 344°
2026-04-29 14:55 -9.32229 -78.77950 35949 ft 422 kts 344°
2026-04-29 14:55 -9.26551 -78.79485 35949 ft 422 kts 344°
2026-04-29 14:56 -9.20926 -78.81005 35949 ft 423 kts 344°
2026-04-29 14:56 -9.15200 -78.82552 35949 ft 423 kts 344°
2026-04-29 14:57 -9.09544 -78.84079 35949 ft 423 kts 344°
2026-04-29 14:57 -9.03886 -78.85606 35957 ft 423 kts 344°
2026-04-29 14:58 -8.98201 -78.87141 35977 ft 423 kts 344°
2026-04-29 14:58 -8.92524 -78.88672 36001 ft 423 kts 344°
2026-04-29 14:59 -8.86835 -78.90207 36018 ft 423 kts 344°
2026-04-29 14:59 -8.81133 -78.91744 36026 ft 423 kts 344°
2026-04-29 15:00 -8.75463 -78.93273 36029 ft 423 kts 344°
2026-04-29 15:00 -8.69789 -78.94802 36030 ft 423 kts 344°
2026-04-29 15:01 -8.64124 -78.96328 36030 ft 423 kts 344°
2026-04-29 15:01 -8.58478 -78.97849 36030 ft 423 kts 344°
2026-04-29 15:02 -8.52791 -78.99380 36027 ft 423 kts 344°
2026-04-29 15:02 -8.47128 -79.00904 36023 ft 423 kts 344°
2026-04-29 15:03 -8.41425 -79.02439 36019 ft 424 kts 344°
2026-04-29 15:03 -8.35755 -79.03964 36018 ft 424 kts 344°
2026-04-29 15:04 -8.30054 -79.05498 36018 ft 424 kts 344°
2026-04-29 15:04 -8.24368 -79.07028 36012 ft 424 kts 344°
2026-04-29 15:05 -8.18708 -79.08552 35996 ft 424 kts 344°
2026-04-29 15:05 -8.13012 -79.10084 35982 ft 425 kts 344°
2026-04-29 15:06 -8.07268 -79.11375 35973 ft 426 kts 349°
2026-04-29 15:06 -8.01381 -79.12166 35966 ft 427 kts 352°
2026-04-29 15:07 -7.95501 -79.12904 35960 ft 428 kts 352°
2026-04-29 15:07 -7.89631 -79.13642 35957 ft 428 kts 352°
2026-04-29 15:08 -7.83722 -79.14387 35953 ft 428 kts 352°
2026-04-29 15:08 -7.77801 -79.15134 35956 ft 429 kts 352°
2026-04-29 15:09 -7.71889 -79.15881 35975 ft 429 kts 352°
2026-04-29 15:09 -7.66008 -79.16623 36003 ft 429 kts 352°
2026-04-29 15:10 -7.60103 -79.17368 36023 ft 429 kts 351°
2026-04-29 15:10 -7.54217 -79.18111 36029 ft 429 kts 351°
2026-04-29 15:11 -7.50287 -79.18608 36028 ft 429 kts 352°